Location: Allos
(44.2333°N, 6.6333°E)
Time: 09:06:41
(UTC+00:00)

H-2A R/B - Pass Details

Date: 01 December 2020
Orbit: 734 x 836 km, 98.2° (Epoch: 25 January)

Event Time Altitude Azimuth Distance (km) Brightness Sun altitude
Exits shadow 17:35:26 30° 72° (ENE) 1,402 2.8 -17.3°
Maximum altitude 17:35:44 30° 66° (ENE) 1,395 2.8 -17.4°
Drops below altitude 10° 17:40:08 10° 7° (N) 2,328 4.3 -18.1°
Sets 17:42:39 0° 357° (N) 3,243 5.1 -18.6°
